OKEAN-0
1 25860U 99039A 12221.92981205 .00000469 00000-0 78359-4 0 07257
2 25860 097.9412 183.5102 0001860 069.1479 290.9929 14.74259997702349
NOAA-16
1 26536U 00055A 12221.65853715 .00000284 00000-0 17756-3 0 08475
2 26536 099.0900 264.5831 0009856 297.7180 062.2990 14.12768456612441
NOAA-17
1 27453U 02032A 12222.75802113 .00000095 00000-0 58714-4 0 7951
2 27453 098.3338 247.0842 0011825 004.9182 355.2099 14.24467758526380
NOAA-18
1 28654U 05018A 12222.71970645 .00000370 00000-0 22817-3 0 2779
2 28654 099.0508 181.2664 0014524 008.0146 352.1241 14.11684408372110
NOAA-19
1 33591U 09005A 12222.73958278 .00000486 00000-0 29260-3 0 4662
2 33591 098.8653 161.8708 0013264 228.4095 131.5936 14.11371569180565
HUBBLE
1 20580U 90037B 12222.92411702 .00001816 00000-0 12049-3 0 502
2 20580 028.4700 151.8440 0003341 264.1374 095.9116 15.02677623 22823
ISS
1 25544U 98067A 12223.04705280 .00010706 00000-0 16320-3 0 895
2 25544 051.6415 213.3468 0001411 041.6981 064.8786 15.55053409786396
CO-58
1 28895U 05043F 12222.58353263 .00000686 00000-0 14969-3 0 2465
2 28895 097.9039 086.4907 0017174 347.4111 012.6686 14.60701140361458
FALCON
1 30776U 07006E 12221.70096543 .00004492 00000-0 28929-3 0 04243
2 30776 035.4342 316.0074 0001521 108.9406 251.1477 15.07902286298189
MAST
1 31126U 07012K 12221.92915517 .00000613 00000-0 14720-3 0 05274
2 31126 097.8738 229.9464 0093058 306.9403 052.3308 14.54221016281933
CAPE1
1 31130U 07012P 12221.94016685 .00000870 00000-0 20798-3 0 05412
2 31130 097.8816 226.3098 0099973 320.5151 038.8790 14.53020599281434
COMPASS
1 32787U 08021E 12221.72581563 .00001987 00000-0 24355-3 0 03781
2 32787 097.7954 281.8934 0014012 248.2585 111.7152 14.84185808231604
AAUSAT2
1 32788U 08021F 12221.61638226 .00002553 00000-0 30868-3 0 03707
2 32788 097.7970 282.1972 0013310 247.8545 112.1258 14.84524851231618
DO-64
1 32789U 08021G 12221.67637513 .00004043 00000-0 46646-3 0 03866
2 32789 097.8082 284.4828 0013513 242.9135 117.0700 14.86140648231677
CO-66
1 32791U 08021J 12221.73666672 .00001910 00000-0 23788-3 0 03697
2 32791 097.7940 281.6030 0014321 244.8068 115.1667 14.83571748231532
RS-30
1 32953U 08025A 12222.65348310 .00000010 00000-0 00000 0 0 380
2 32953 082.5008 261.8927 0018596 187.0819 173.0014 12.43026503191200
PHARMSAT
1 35002U 09028B 12222.87087790 .01113097 69108-5 64460-3 0 595
2 35002 040.4447 077.8011 0014903 293.2950 066.6018 16.17587914182902
METEOR-M
1 35865U 09049A 12222.77108838 -.00000006 00000-0 16913-4 0 6684
2 35865 098.6508 276.0803 0001640 258.2559 101.8429 14.21867039150213
RS-38
1 35869U 09049E 12222.71387992 .00000043 00000-0 39247-4 0 6744
2 35869 098.6460 276.0110 0003792 257.8280 102.2467 14.22081686150226
JUGNU
1 37839U 11058B 12221.81644575 .00000619 00000-0 19019-3 0 02041
2 37839 019.9627 039.3908 0019672 081.3844 278.8706 14.12071297042694
SRMSAT
1 37841U 11058D 12221.87182326 .00000264 00000-0 00000 0 0 2021
2 37841 019.9720 044.9607 0011595 047.2449 312.8993 14.10153237 42631
RAX-2
1 37853U 11061D 12221.91088141 .00004243 00000-0 34040-3 0 02603
2 37853 101.7098 286.1113 0246265 200.5342 158.5823 14.80326871042207
AUBIESAT
1 37854U 11061E 12222.86516696 .00005162 00000-0 40483-3 0 2531
2 37854 101.7099 287.8187 0247306 196.9647 162.3176 14.80747547 42336
HRBE
1 37855U 11061F 12222.88431804 .00004773 00000-0 37694-3 0 2505
2 37855 101.7114 287.7847 0247318 197.1507 162.1244 14.80585841 42339
RS-39
1 38051U 11062C 12222.85105324 .00011021 00000-0 44580-3 0 5922
2 38051 051.6375 263.9678 0013430 228.6761 112.7608 15.25123708 30158
E-STAR
1 38079U 12006C 12222.34308485 .00033076 00000-0 80205-3 0 4149
2 38079 069.4844 193.9110 0730368 180.8450 179.1500 14.17990179 25111
GOLIAT
1 38085U 12006J 12222.30168860 .00032774 00000-0 79107-3 0 3831
2 38085 069.4905 194.4478 0735699 181.2098 178.7275 14.16949861 25096
HORYU-2
1 38340U 12025D 12222.87145132 .00001269 00000-0 21939-3 0 859
2 38340 098.1753 162.7290 0013300 154.9150 205.2731 14.70083450 12366
RS-40
1 38736U 12041D 12222.60626955 .00000010 00000-0 00000 0 0 185
2 38736 082.4813 349.3858 0017722 288.1690 071.7460 12.42645811 1547
